Find Starlink 1477

NORAD ID: 45754 Int'l Des: 2020-038 Owner: SPXS Country: US Constellation: starlink operational
LEOCIRCULAR

現在のビュー

3D地球を読み込み中...

About Starlink 1477

Starlink 1477 (NORAD 45754) is a starlink constellation satellite (v1.0) launched Jun 13, 2020 by SPXS of US. It operates in LEO, CIRCULAR orbit with a mass of 260.00 kg.

次回通過

Passes for default location (London). Set your location on the main map for personalized predictions.

高度履歴

Loading altitude history...

軌道要素

1 45754U 20038AA 26235.20908736 .00029251 00000-0 12528-2 0 9990
2 45754 53.0320 171.1392 0003405 78.2045 281.9332 15.22570637341837
Epoch: Aug 23, 2026 • Age: 30 hours

現在のステータス

高度 511.7 km
遠地点 / 近地点 N/A
速度 7.61 km/s
衛星直下点 -37.93°S, 3.93°W
打ち上げ日 Jun 13, 2020
運用期間 6.1 years
タイプ internet

技術仕様

分類 Payload
質量 260.00 kg
乾燥質量 248.00 kg
総質量 260.00 kg
長さ 0.20 m
直径 2.80 m
スパン 9.00 m
形状 Box + pan
製造者 SPXS
バスタイプ Starlink
フェーズステータス In Orbit
所有者/国 SPXS/US

Most Searched